Simultaneous Nadir Overpasses (SNOs) Predictions

Prediction of SNOs between GOES-17 and AQUA Satellite Orbit:

Table of predicted SNOs for the next 14.0 days since TLE Epoch: 7/24/2020
Index Date Time (GOES-17) GOES-17 Lat,Lon AQUA Lat,Lon Distance(km) Time Diff (sec)
1 07/24/2020 22:58:16 -0.00,-137.19 -0.77,-140.86 417.26 80
2 07/26/2020 22:46:05 -0.00,-137.19 -0.14,-137.91 81.04 80
3 07/28/2020 22:36:33 -0.01,-137.19 0.44,-134.94 254.64 80
4 07/29/2020 10:57:49 0.01,-137.19 0.64,-140.10 331.39 80
5 07/31/2020 10:42:58 0.01,-137.18 -0.00,-137.15 3.58 80
6 08/02/2020 10:30:46 0.02,-137.16 -0.59,-134.18 337.67 80
7 08/02/2020 22:52:09 -0.02,-137.14 -0.51,-139.37 253.88 80
8 08/04/2020 22:42:39 -0.02,-137.12 0.14,-136.42 80.03 80
9 08/06/2020 22:30:27 -0.02,-137.10 0.73,-133.46 413.71 80
10 08/07/2020 10:51:42 0.02,-137.10 0.35,-138.62 172.65 80
